TimeCST,TemperatureF,Dew PointF,Humidity,Sea Level PressureIn,VisibilityMPH,Wind Direction,Wind SpeedMPH,Gust SpeedMPH,PrecipitationIn,Events,Conditions,WindDirDegrees,DateUTC
12:16 AM,53.6,53.6,100,30.00,1.8,Calm,Calm,-,0.00,,Scattered Clouds,0,2012-12-09 06:16:00
12:25 AM,53.6,53.6,100,30.00,3.0,Calm,Calm,-,0.00,,Mostly Cloudy,0,2012-12-09 06:25:00
12:37 AM,55.4,55.4,100,30.00,1.5,Calm,Calm,-,0.00,,Overcast,0,2012-12-09 06:37:00
12:45 AM,55.4,55.4,100,30.00,0.5,Calm,Calm,-,0.00,Fog,Fog,0,2012-12-09 06:45:00
12:52 AM,53.6,53.6,100,30.00,3.0,Calm,Calm,-,0.00,,Overcast,0,2012-12-09 06:52:00
12:56 AM,54.0,54.0,100,30.01,7.0,Calm,Calm,-,0.00,,Overcast,0,2012-12-09 06:56:00
1:10 AM,53.6,53.6,100,30.00,1.5,Calm,Calm,-,0.00,Rain,Light Rain,0,2012-12-09 07:10:00
1:20 AM,53.6,53.6,100,30.00,0.5,Calm,Calm,-,0.00,Fog-Rain,Light Rain,0,2012-12-09 07:20:00
1:34 AM,53.6,53.6,100,30.00,0.2,Calm,Calm,-,0.00,Fog,Fog,0,2012-12-09 07:34:00
1:56 AM,52.0,52.0,100,30.01,0.5,Calm,Calm,-,0.00,Fog,Fog,0,2012-12-09 07:56:00
2:56 AM,53.1,53.1,100,30.00,1.0,Calm,Calm,-,0.00,,Mist,0,2012-12-09 08:56:00
3:09 AM,53.6,53.6,100,30.00,3.0,Calm,Calm,-,N/A,,Overcast,0,2012-12-09 09:09:00
3:23 AM,51.8,51.8,100,30.00,1.8,Calm,Calm,-,N/A,,Overcast,0,2012-12-09 09:23:00
3:34 AM,51.8,51.8,100,30.00,0.5,Calm,Calm,-,N/A,Fog,Fog,0,2012-12-09 09:34:00
3:48 AM,53.6,53.6,100,30.00,2.0,Calm,Calm,-,N/A,,Overcast,0,2012-12-09 09:48:00
3:56 AM,53.1,53.1,100,30.01,1.8,Calm,Calm,-,N/A,,Overcast,0,2012-12-09 09:56:00
4:02 AM,53.6,53.6,100,30.00,3.0,Calm,Calm,-,N/A,,Overcast,0,2012-12-09 10:02:00
4:31 AM,51.8,51.8,100,30.01,5.0,Calm,Calm,-,0.00,,Scattered Clouds,0,2012-12-09 10:31:00
4:41 AM,53.6,53.6,100,30.01,1.5,Calm,Calm,-,0.00,,Partly Cloudy,0,2012-12-09 10:41:00
4:45 AM,53.6,53.6,100,30.01,0.8,Calm,Calm,-,0.00,,Mist,0,2012-12-09 10:45:00
4:56 AM,53.1,53.1,100,30.02,0.5,Calm,Calm,-,0.00,Fog,Fog,0,2012-12-09 10:56:00
5:05 AM,53.6,53.6,100,30.02,2.5,Calm,Calm,-,N/A,,Overcast,0,2012-12-09 11:05:00
5:12 AM,51.8,51.8,100,30.02,8.0,Calm,Calm,-,N/A,,Overcast,0,2012-12-09 11:12:00
5:56 AM,54.0,54.0,100,30.03,3.0,Calm,Calm,-,0.00,,Mostly Cloudy,0,2012-12-09 11:56:00
5:58 AM,53.6,53.6,100,30.03,1.8,Calm,Calm,-,N/A,,Mostly Cloudy,0,2012-12-09 11:58:00
6:08 AM,53.6,53.6,100,30.03,0.5,Calm,Calm,-,N/A,Fog,Fog,0,2012-12-09 12:08:00
6:18 AM,55.4,55.4,100,30.03,0.2,Calm,Calm,-,0.00,Fog-Rain,Light Rain,0,2012-12-09 12:18:00
6:56 AM,57.9,57.9,100,30.05,0.2,Calm,Calm,-,0.00,Fog,Fog,0,2012-12-09 12:56:00
7:56 AM,61.0,61.0,100,30.06,0.2,Calm,Calm,-,N/A,Fog,Fog,0,2012-12-09 13:56:00
8:04 AM,62.6,62.6,100,30.06,1.0,Calm,Calm,-,N/A,,Mostly Cloudy,0,2012-12-09 14:04:00
8:07 AM,62.6,62.6,100,30.06,5.0,Calm,Calm,-,0.00,Rain,Light Rain,0,2012-12-09 14:07:00
8:19 AM,64.4,64.4,100,30.06,10.0,Calm,Calm,-,0.00,,Scattered Clouds,0,2012-12-09 14:19:00
8:56 AM,64.9,64.9,100,30.07,10.0,ENE,4.6,-,N/A,,Mostly Cloudy,70,2012-12-09 14:56:00
9:56 AM,68.0,64.9,90,30.08,10.0,Calm,Calm,-,N/A,,Mostly Cloudy,0,2012-12-09 15:56:00
10:56 AM,73.0,64.9,76,30.06,10.0,SE,5.8,-,N/A,,Mostly Cloudy,140,2012-12-09 16:56:00
11:56 AM,73.0,64.9,76,30.04,10.0,South,5.8,-,N/A,,Overcast,180,2012-12-09 17:56:00
12:56 PM,73.0,66.0,79,30.01,10.0,South,9.2,-,N/A,,Overcast,170,2012-12-09 18:56:00
1:56 PM,73.9,66.0,76,30.01,10.0,SSE,10.4,-,N/A,,Overcast,160,2012-12-09 19:56:00
2:56 PM,72.0,66.0,81,30.00,10.0,SSE,10.4,-,N/A,,Overcast,160,2012-12-09 20:56:00
3:09 PM,71.6,66.2,83,29.99,10.0,South,8.1,-,N/A,,Overcast,170,2012-12-09 21:09:00
3:56 PM,72.0,68.0,87,30.00,10.0,South,9.2,-,N/A,,Overcast,170,2012-12-09 21:56:00
4:56 PM,71.1,68.0,90,29.99,10.0,South,10.4,-,N/A,,Overcast,170,2012-12-09 22:56:00
5:12 PM,69.8,68.0,94,29.99,10.0,SSE,8.1,-,N/A,,Mostly Cloudy,160,2012-12-09 23:12:00
5:30 PM,69.8,68.0,94,29.98,10.0,SSE,8.1,-,N/A,,Mostly Cloudy,160,2012-12-09 23:30:00
5:56 PM,70.0,68.0,93,29.99,10.0,South,9.2,-,N/A,,Scattered Clouds,170,2012-12-09 23:56:00
6:56 PM,70.0,68.0,93,29.99,10.0,South,9.2,-,N/A,,Partly Cloudy,170,2012-12-10 00:56:00
7:56 PM,70.0,68.0,93,29.99,10.0,South,10.4,-,N/A,,Partly Cloudy,180,2012-12-10 01:56:00
8:56 PM,70.0,66.9,90,29.99,10.0,South,10.4,-,N/A,,Partly Cloudy,180,2012-12-10 02:56:00
9:56 PM,70.0,66.9,90,29.98,10.0,South,12.7,-,N/A,,Partly Cloudy,170,2012-12-10 03:56:00
10:56 PM,70.0,66.9,90,29.96,10.0,South,12.7,-,N/A,,Clear,180,2012-12-10 04:56:00
11:56 PM,70.0,66.9,90,29.95,10.0,South,11.5,-,N/A,,Partly Cloudy,180,2012-12-10 05:56:00